FW7918 Weather Reports


Display with metric or nautical units.
time (UTC)temp
F
wind
direction
speed
MPH
gust
MPH
rain 1hr
in
rain 24hr
in
rain mn
in
humidity
%
barometer
mb
20260509175253 80 99 0.0 0.0 0.00 0.00 0.00 99 1009.2
20260509174749 80 102 0.0 0.0 0.00 0.00 0.00 99 1009.1
20260509174244 80 98 0.0 0.0 0.00 0.00 0.00 99 1009.2
20260509173740 80 98 0.0 0.0 0.00 0.00 0.00 99 1009.2
20260509173236 80 98 0.0 0.0 0.00 0.00 0.00 99 1009.0
20260509172732 80 98 0.0 0.0 0.00 0.00 0.00 99 1009.2
20260509172229 80 96 0.0 0.0 0.00 0.00 0.00 99 1009.3
20260509171724 80 106 0.0 0.0 0.00 0.00 0.00 99 1009.4
20260509171221 81 108 0.0 1.0 0.00 0.00 0.00 99 1009.6
20260509170718 80 113 1.0 2.0 0.00 0.00 0.00 99 1009.5
20260509170214 80 64 1.0 1.0 0.00 0.00 0.00 99 1009.4
20260509165712 80 104 0.0 0.0 0.00 0.00 0.00 99 1009.5
20260509165208 80 111 0.0 1.0 0.00 0.00 0.00 99 1009.7
20260509164704 80 103 0.0 0.0 0.00 0.00 0.00 99 1009.5
20260509164200 80 102 0.0 0.0 0.00 0.00 0.00 99 1009.5
20260509163657 80 102 0.0 0.0 0.00 0.00 0.00 99 1009.5
20260509163154 80 102 0.0 0.0 0.00 0.00 0.00 99 1009.6
20260509162651 80 102 0.0 0.0 0.00 0.00 0.00 99 1009.7
20260509162147 80 102 0.0 0.0 0.00 0.00 0.00 99 1009.5
20260509161643 80 102 0.0 0.0 0.00 0.00 0.00 99 1009.5
20260509161138 80 102 0.0 0.0 0.00 0.00 0.00 99 1009.8
20260509160634 80 101 0.0 0.0 0.00 0.00 0.00 99 1009.6
20260509160130 80 116 1.0 2.0 0.00 0.00 0.00 99 1009.8
20260509155626 80 98 0.0 0.0 0.00 0.00 0.00 99 1009.7
20260509155122 80 98 0.0 0.0 0.00 0.00 0.00 99 1009.7
20260509154618 80 98 0.0 0.0 0.00 0.00 0.00 99 1009.9
20260509154115 81 96 0.0 0.0 0.00 0.00 0.00 99 1009.7
20260509153612 81 94 0.0 0.0 0.00 0.00 0.00 99 1009.8
20260509153109 81 95 0.0 0.0 0.00 0.00 0.00 99 1009.8
20260509152605 81 96 0.0 0.0 0.00 0.00 0.00 99 1009.8
20260509152103 81 91 0.0 0.0 0.00 0.00 0.00 99 1009.7
20260509151558 80 100 0.0 0.0 0.00 0.00 0.00 99 1009.8
20260509151057 80 100 0.0 0.0 0.00 0.00 0.00 99 1010.0
20260509150554 80 100 0.0 0.0 0.00 0.00 0.00 99 1009.6
20260509150053 81 99 0.0 0.0 0.00 0.00 0.00 99 1009.9
20260509145548 82 92 0.0 1.0 0.00 0.00 0.00 98 1009.6
20260509145043 82 94 0.0 0.0 0.00 0.00 0.00 98 1009.8
20260509144540 82 93 0.0 0.0 0.00 0.00 0.00 98 1009.6
20260509144037 82 100 0.0 0.0 0.00 0.00 0.00 99 1009.5
20260509143534 81 100 0.0 0.0 0.00 0.00 0.00 99 1009.6
20260509143032 82 100 0.0 0.0 0.00 0.00 0.00 98 1009.7
20260509142527 83 98 0.0 0.0 0.00 0.00 0.00 96 1009.5
20260509142023 83 104 0.0 0.0 0.00 0.00 0.00 95 1009.8
20260509141520 83 82 0.0 1.0 0.00 0.00 0.00 95 1009.5
20260509141017 83 86 0.0 0.0 0.00 0.00 0.00 96 1009.4
20260509140513 84 104 0.0 0.0 0.00 0.00 0.00 95 1009.3
20260509140012 84 100 0.0 0.0 0.00 0.00 0.00 94 1009.4
20260509135508 84 88 0.0 0.0 0.00 0.00 0.00 94 1009.4
20260509135006 84 89 0.0 0.0 0.00 0.00 0.00 94 1009.5
20260509134503 84 88 0.0 1.0 0.00 0.00 0.00 94 1009.1
20260509134001 83 92 0.0 0.0 0.00 0.00 0.00 95 1009.3
20260509133457 84 94 0.0 1.0 0.00 0.00 0.00 95 1009.2
20260509132954 84 98 0.0 0.0 0.00 0.00 0.00 95 1009.4
20260509132453 84 102 0.0 0.0 0.00 0.00 0.00 94 1009.1
20260509131950 84 93 0.0 0.0 0.00 0.00 0.00 94 1009.2
20260509131447 84 102 0.0 0.0 0.00 0.00 0.00 94 1009.0
20260509130943 84 92 0.0 0.0 0.00 0.00 0.00 94 1009.2
20260509130438 84 91 0.0 0.0 0.00 0.00 0.00 95 1009.1
20260509125936 84 93 0.0 0.0 0.00 0.00 0.00 95 1009.2
20260509125432 84 89 0.0 0.0 0.00 0.00 0.00 94 1009.0
20260509124928 84 99 0.0 0.0 0.00 0.00 0.00 95 1009.3
20260509124426 84 99 0.0 0.0 0.00 0.00 0.00 95 1009.2
20260509123923 84 98 0.0 0.0 0.00 0.00 0.00 94 1009.0
20260509123420 84 98 0.0 0.0 0.00 0.00 0.00 93 1009.2
20260509122916 85 98 0.0 0.0 0.00 0.00 0.00 92 1009.2
20260509122413 85 76 0.0 1.0 0.00 0.00 0.00 90 1009.1
20260509121910 85 98 0.0 0.0 0.00 0.00 0.00 92 1008.9
20260509121407 85 101 0.0 0.0 0.00 0.00 0.00 91 1008.9
20260509120905 86 94 0.0 0.0 0.00 0.00 0.00 90 1009.0
20260509120402 86 91 0.0 1.0 0.00 0.00 0.00 90 1009.0
20260509115900 86 75 0.0 1.0 0.00 0.00 0.00 90 1008.9
20260509115357 85 94 0.0 0.0 0.00 0.00 0.00 91 1008.7
20260509114855 85 91 0.0 0.0 0.00 0.00 0.00 92 1008.7
20260509114353 85 81 1.0 1.0 0.00 0.00 0.00 91 1008.9
20260509113852 85 91 0.0 0.0 0.00 0.00 0.00 91 1008.6
20260509113349 85 94 0.0 0.0 0.00 0.00 0.00 91 1008.5
20260509112846 85 84 0.0 1.0 0.00 0.00 0.00 90 1008.5
20260509112343 85 91 0.0 1.0 0.00 0.00 0.00 90 1008.5
20260509111840 85 81 0.0 2.0 0.00 0.00 0.00 89 1008.7
20260509111337 86 57 1.0 2.0 0.00 0.00 0.00 89 1008.3
20260509110835 86 76 1.0 2.0 0.00 0.00 0.00 88 1008.3
20260509110331 86 35 4.0 5.0 0.00 0.00 0.00 87 1008.4
20260509105829 86 72 1.0 2.0 0.00 0.00 0.00 87 1008.1
20260509105327 86 63 1.0 3.0 0.00 0.00 0.00 87 1008.2
20260509104823 86 27 2.0 5.0 0.00 0.00 0.00 87 1008.0
20260509104320 87 73 1.0 1.0 0.00 0.00 0.00 86 1008.2
20260509103818 87 88 1.0 6.0 0.00 0.00 0.00 86 1008.5
20260509103315 87 50 0.0 2.0 0.00 0.00 0.00 84 1008.2
20260509102813 87 100 0.0 2.0 0.00 0.00 0.00 85 1007.9
20260509102310 87 95 3.0 3.0 0.00 0.00 0.00 85 1007.7
20260509101806 87 111 0.0 2.0 0.00 0.00 0.00 85 1007.6
20260509101303 88 45 4.0 7.0 0.00 0.00 0.00 84 1007.5
20260509100800 88 97 2.0 6.0 0.00 0.00 0.00 84 1007.4
20260509100257 88 145 4.0 7.0 0.00 0.00 0.00 84 1007.4
20260509095754 88 130 0.0 3.0 0.00 0.00 0.00 83 1007.1
20260509095251 88 94 0.0 3.0 0.00 0.00 0.00 83 1007.2
20260509094748 87 60 4.0 6.0 0.00 0.00 0.00 85 1007.4
20260509094245 87 12 1.0 3.0 0.00 0.00 0.00 84 1007.4
20260509093743 87 130 2.0 3.0 0.00 0.00 0.00 86 1007.4
20260509093240 88 96 1.0 3.0 0.00 0.00 0.00 86 1007.4
20260509092738 88 344 5.0 8.0 0.00 0.00 0.00 85 1007.3
20260509092236 88 77 1.0 6.0 0.00 0.00 0.00 85 1007.5
20260509091733 88 59 6.0 8.0 0.00 0.00 0.00 85 1007.3
20260509091229 88 104 5.0 9.0 0.00 0.00 0.00 84 1007.3
20260509090727 88 104 1.0 5.0 0.00 0.00 0.00 85 1007.5
20260509090224 88 72 3.0 8.0 0.00 0.00 0.00 86 1007.6
20260509085722 87 124 4.0 6.0 0.00 0.00 0.00 87 1007.5
20260509085219 88 135 2.0 3.0 0.00 0.00 0.00 86 1007.3
20260509084715 88 84 3.0 7.0 0.00 0.00 0.00 86 1007.6
20260509084212 87 34 4.0 5.0 0.00 0.00 0.00 87 1007.4
20260509083710 87 64 2.0 2.0 0.00 0.00 0.00 89 1007.5
20260509083207 86 50 5.0 7.0 0.00 0.00 0.00 90 1007.6
20260509082703 87 101 3.0 5.0 0.00 0.00 0.00 89 1007.8
20260509082200 86 102 1.0 5.0 0.00 0.00 0.00 89 1007.8
20260509081657 86 23 5.0 7.0 0.00 0.00 0.00 89 1007.8
20260509081154 86 55 2.0 6.0 0.00 0.00 0.00 88 1007.5
20260509080652 86 70 3.0 10.0 0.00 0.00 0.00 88 1007.7
20260509080150 87 46 3.0 6.0 0.00 0.00 0.00 88 1007.6
20260509075648 87 181 2.0 5.0 0.00 0.00 0.00 87 1007.7
20260509075145 87 55 4.0 8.0 0.00 0.00 0.00 86 1007.9
20260509074642 88 110 1.0 8.0 0.00 0.00 0.00 85 1008.1
20260509074138 88 34 3.0 7.0 0.00 0.00 0.00 85 1008.3
20260509073636 88 119 4.0 7.0 0.00 0.00 0.00 84 1008.2
20260509073131 90 83 4.0 7.0 0.00 0.00 0.00 82 1008.0
20260509072629 89 118 2.0 6.0 0.00 0.00 0.00 83 1008.1
20260509072125 89 121 2.0 7.0 0.00 0.00 0.00 86 1008.4
20260509071622 89 151 3.0 6.0 0.00 0.00 0.00 84 1008.3
20260509071119 89 99 3.0 6.0 0.00 0.00 0.00 84 1008.1
20260509070616 89 101 6.0 7.0 0.00 0.00 0.00 83 1008.5
20260509070112 88 58 4.0 6.0 0.00 0.00 0.00 85 1008.8
20260509065608 89 80 2.0 5.0 0.00 0.00 0.00 86 1008.8
20260509065104 87 76 3.0 7.0 0.00 0.00 0.00 85 1008.9
20260509064602 89 99 2.0 6.0 0.00 0.00 0.00 87 1009.4
20260509064100 89 128 1.0 6.0 0.00 0.00 0.00 86 1009.3
20260509063556 89 73 3.0 3.0 0.00 0.00 0.00 85 1009.2
20260509063053 89 57 3.0 9.0 0.00 0.00 0.00 84 1009.3
20260509062550 88 62 4.0 8.0 0.00 0.00 0.00 83 1009.3
20260509062048 89 66 3.0 5.0 0.00 0.00 0.00 85 1009.8
20260509061544 88 51 3.0 6.0 0.00 0.00 0.00 87 1009.6
20260509061042 88 122 3.0 5.0 0.00 0.00 0.00 86 1009.6
20260509060539 88 76 4.0 8.0 0.00 0.00 0.00 85 1009.7
20260509060035 87 107 4.0 6.0 0.00 0.00 0.00 87 1009.9
20260509055530 86 130 4.0 7.0 0.00 0.00 0.00 88 1010.1
20260509055026 87 156 3.0 6.0 0.00 0.00 0.00 88 1009.9
20260509054523 89 185 4.0 6.0 0.00 0.00 0.00 85 1010.0
20260509054021 87 75 5.0 7.0 0.00 0.00 0.00 86 1010.4
20260509053520 88 11 5.0 9.0 0.00 0.00 0.00 83 1010.2
20260509053016 88 91 6.0 10.0 0.00 0.00 0.00 82 1010.2
20260509052514 89 34 4.0 6.0 0.00 0.00 0.00 81 1010.5
20260509052012 88 175 3.0 7.0 0.00 0.00 0.00 83 1010.2
20260509051509 89 122 3.0 5.0 0.00 0.00 0.00 82 1010.5
20260509051006 88 98 2.0 6.0 0.00 0.00 0.00 81 1010.5
20260509050503 88 105 2.0 5.0 0.00 0.00 0.00 82 1010.3
20260509045959 89 142 2.0 5.0 0.00 0.00 0.00 82 1010.5
20260509045457 90 18 4.0 6.0 0.00 0.00 0.00 80 1010.5
20260509044954 91 88 4.0 6.0 0.00 0.00 0.00 80 1010.5
20260509044451 90 323 3.0 7.0 0.00 0.00 0.00 81 1010.7
20260509043948 89 45 3.0 6.0 0.00 0.00 0.00 83 1010.6
20260509043444 90 71 5.0 7.0 0.00 0.00 0.00 82 1010.7
20260509042939 89 21 2.0 3.0 0.00 0.00 0.00 83 1010.9
20260509042437 89 59 1.0 5.0 0.00 0.00 0.00 85 1011.0
20260509041933 89 134 2.0 5.0 0.00 0.00 0.00 84 1011.1
20260509041430 90 128 3.0 5.0 0.00 0.00 0.00 82 1011.2
20260509040928 89 42 1.0 1.0 0.00 0.00 0.00 80 1011.1
20260509040426 89 94 2.0 2.0 0.00 0.00 0.00 82 1011.0
20260509035922 88 49 2.0 5.0 0.00 0.00 0.00 83 1011.1
20260509035419 89 29 2.0 5.0 0.00 0.00 0.00 83 1011.1
20260509034915 89 89 0.0 3.0 0.00 0.00 0.00 82 1011.1
20260509034414 89 150 2.0 5.0 0.00 0.00 0.00 81 1011.3
20260509033910 90 83 1.0 5.0 0.00 0.00 0.00 80 1011.3
20260509033407 89 74 2.0 2.0 0.00 0.00 0.00 82 1011.2
20260509032904 88 330 4.0 6.0 0.00 0.00 0.00 83 1011.1
20260509032401 87 315 3.0 5.0 0.00 0.00 0.00 84 1011.2
20260509031859 88 358 2.0 3.0 0.00 0.00 0.00 84 1011.4
20260509031356 89 78 1.0 5.0 0.00 0.00 0.00 84 1011.5
20260509030854 89 18 2.0 3.0 0.00 0.00 0.00 83 1011.4
20260509030352 88 44 2.0 5.0 0.00 0.00 0.00 84 1011.4
20260509025849 88 84 2.0 3.0 0.00 0.00 0.00 85 1011.5
20260509025343 87 77 0.0 2.0 0.00 0.00 0.00 85 1011.4
20260509024839 87 214 3.0 3.0 0.00 0.00 0.00 85 1011.6
20260509024336 87 299 3.0 3.0 0.00 0.00 0.00 86 1011.5
20260509023833 86 255 2.0 3.0 0.00 0.00 0.00 89 1011.4
20260509023330 85 162 2.0 3.0 0.00 0.00 0.00 89 1011.3
20260509022827 85 54 2.0 5.0 0.00 0.00 0.00 90 1011.4
20260509022324 84 235 1.0 3.0 0.00 0.00 0.00 90 1011.6
20260509021821 85 307 3.0 5.0 0.00 0.00 0.00 90 1011.6
20260509021318 84 286 3.0 3.0 0.00 0.00 0.00 91 1011.5
20260509020815 84 357 4.0 5.0 0.00 0.00 0.00 91 1011.6
20260509020314 84 99 1.0 2.0 0.00 0.00 0.00 92 1011.6
20260509015811 84 322 3.0 3.0 0.00 0.00 0.00 92 1011.8
20260509015309 83 354 2.0 5.0 0.00 0.00 0.00 93 1011.7
20260509014805 83 25 2.0 5.0 0.00 0.00 0.00 94 1011.9
20260509014302 83 320 3.0 5.0 0.00 0.00 0.00 94 1011.8
20260509013758 82 7 1.0 2.0 0.00 0.00 0.00 95 1011.7
20260509013254 81 26 1.0 5.0 0.00 0.00 0.00 96 1011.7
20260509012751 81 43 2.0 3.0 0.00 0.00 0.00 96 1011.7
20260509012248 80 347 3.0 3.0 0.00 0.00 0.00 97 1011.8
20260509011745 80 343 2.0 5.0 0.00 0.00 0.00 98 1011.6
20260509011243 80 89 0.0 2.0 0.00 0.00 0.00 98 1011.4
20260509010740 80 90 2.0 3.0 0.00 0.00 0.00 98 1011.5
20260509010237 79 28 2.0 2.0 0.00 0.00 0.00 99 1011.4
20260509005734 80 97 0.0 1.0 0.00 0.00 0.00 99 1011.5
20260509005231 79 87 0.0 1.0 0.00 0.00 0.00 99 1011.6
20260509004725 79 92 0.0 2.0 0.00 0.00 0.00 99 1011.4
20260509004223 79 73 1.0 1.0 0.00 0.00 0.00 99 1011.3
20260509003721 79 92 0.0 0.0 0.00 0.00 0.00 99 1011.4
20260509003219 79 99 0.0 1.0 0.00 0.00 0.00 99 1011.4
20260509002716 79 92 0.0 1.0 0.00 0.00 0.00 99 1011.2
20260509002213 78 43 1.0 2.0 0.00 0.00 0.00 99 1011.1
20260509001711 78 83 1.0 2.0 0.00 0.00 0.00 99 1011.1
20260509001206 78 102 0.0 0.0 0.00 0.00 0.00 99 1010.9
20260509000705 78 266 2.0 3.0 0.00 0.00 0.00 99 1010.6
20260509000204 77 117 0.0 0.0 0.00 0.00 0.00 99 1011.0
20260508235659 77 105 0.0 2.0 0.00 0.00 0.00 99 1010.9
20260508235155 77 94 0.0 2.0 0.00 0.00 0.00 99 1010.5
20260508234653 77 146 1.0 3.0 0.00 0.00 0.00 99 1010.8
20260508234149 77 89 0.0 1.0 0.00 0.00 0.00 99 1010.8
20260508233648 77 55 1.0 2.0 0.00 0.00 0.00 99 1010.5
20260508233145 77 62 1.0 2.0 0.00 0.00 0.00 99 1010.5
20260508232643 77 269 3.0 5.0 0.00 0.00 0.00 99 1010.3
20260508232139 77 108 0.0 2.0 0.00 0.00 0.00 99 1010.5
20260508231637 77 34 0.0 1.0 0.00 0.00 0.00 99 1010.4
20260508231133 77 83 1.0 2.0 0.00 0.00 0.00 99 1010.0
20260508230630 77 297 2.0 3.0 0.00 0.00 0.00 99 1010.1
20260508230126 77 87 1.0 1.0 0.00 0.00 0.00 99 1010.2
20260508225625 77 100 0.0 1.0 0.00 0.00 0.00 99 1010.1
20260508225121 77 238 2.0 3.0 0.00 0.00 0.00 99 1010.0
20260508224619 77 119 0.0 1.0 0.00 0.00 0.00 99 1009.8
20260508224116 77 98 1.0 5.0 0.00 0.00 0.00 99 1009.8
20260508223614 77 110 0.0 0.0 0.00 0.00 0.00 99 1009.5
20260508223111 77 82 0.0 1.0 0.00 0.00 0.00 99 1009.5
20260508222608 77 86 0.0 1.0 0.00 0.00 0.00 99 1009.5
20260508222105 77 96 0.0 0.0 0.00 0.00 0.00 99 1009.4
20260508221601 77 97 0.0 1.0 0.00 0.00 0.00 99 1009.2
20260508221057 77 82 0.0 3.0 0.00 0.00 0.00 99 1009.3
20260508220554 77 82 1.0 1.0 0.00 0.00 0.00 99 1009.0
20260508220050 77 45 1.0 5.0 0.00 0.00 0.00 99 1009.1
20260508215547 77 48 1.0 2.0 0.00 0.00 0.00 99 1008.9
20260508215044 77 24 3.0 3.0 0.00 0.00 0.00 99 1008.9
20260508214541 77 47 1.0 3.0 0.00 0.00 0.00 99 1008.7
20260508214037 77 357 1.0 3.0 0.00 0.00 0.00 99 1008.7
20260508213535 77 295 4.0 6.0 0.00 0.00 0.00 99 1008.6
20260508213030 77 268 3.0 5.0 0.00 0.00 0.00 99 1008.5
20260508212528 77 194 3.0 3.0 0.00 0.00 0.00 99 1008.7
20260508212024 77 13 2.0 5.0 0.00 0.00 0.00 99 1008.6
20260508211519 77 6 1.0 2.0 0.00 0.00 0.00 99 1008.5
20260508211016 77 30 1.0 3.0 0.00 0.00 0.00 99 1008.8
20260508210512 77 120 2.0 3.0 0.00 0.00 0.00 99 1008.6
20260508210010 78 144 1.0 1.0 0.00 0.00 0.00 99 1008.5
20260508205507 77 304 3.0 3.0 0.00 0.00 0.00 99 1008.7
20260508205003 77 250 3.0 3.0 0.00 0.00 0.00 99 1008.5
20260508204500 77 259 2.0 2.0 0.00 0.00 0.00 99 1008.8
20260508203955 77 219 2.0 2.0 0.00 0.00 0.00 99 1008.5
20260508203452 77 303 3.0 5.0 0.00 0.00 0.00 99 1008.6
20260508202947 77 298 2.0 2.0 0.00 0.00 0.00 99 1008.8
20260508202445 77 65 0.0 1.0 0.00 0.00 0.00 99 1008.5
20260508201942 77 30 0.0 2.0 0.00 0.00 0.00 99 1008.7
20260508201438 77 146 1.0 2.0 0.00 0.00 0.00 99 1008.5
20260508200935 77 84 0.0 2.0 0.00 0.00 0.00 99 1008.7
20260508200433 77 76 0.0 2.0 0.00 0.00 0.00 99 1008.7
20260508195927 77 98 0.0 1.0 0.00 0.00 0.00 99 1008.6
20260508195425 77 102 0.0 5.0 0.00 0.00 0.00 99 1008.8
20260508194920 77 104 0.0 2.0 0.00 0.00 0.00 99 1008.6
20260508194418 77 112 0.0 2.0 0.00 0.00 0.00 99 1008.9
20260508193915 77 274 2.0 3.0 0.00 0.00 0.00 99 1008.7
20260508193412 77 281 2.0 3.0 0.00 0.00 0.00 99 1009.0
20260508192908 77 160 1.0 2.0 0.00 0.00 0.00 99 1009.1
20260508192405 77 123 0.0 2.0 0.00 0.00 0.00 99 1009.0
20260508191902 77 109 1.0 2.0 0.00 0.00 0.00 99 1008.9
20260508191359 77 118 1.0 3.0 0.00 0.00 0.00 99 1009.1
20260508190856 77 124 2.0 3.0 0.00 0.00 0.00 99 1009.1
20260508190353 77 90 2.0 2.0 0.00 0.00 0.00 99 1009.2
20260508185849 77 100 0.0 0.0 0.00 0.00 0.00 99 1009.1
20260508185347 77 122 0.0 1.0 0.00 0.00 0.00 99 1009.4
20260508184844 77 103 0.0 0.0 0.00 0.00 0.00 99 1009.4
20260508184341 77 96 0.0 0.0 0.00 0.00 0.00 99 1009.3
20260508183838 77 114 0.0 1.0 0.00 0.00 0.00 99 1009.4
20260508183334 78 75 0.0 1.0 0.00 0.00 0.00 99 1009.8
20260508182830 77 107 0.0 0.0 0.00 0.00 0.00 99 1009.5
20260508182327 77 108 0.0 0.0 0.00 0.00 0.00 99 1009.9
20260508181823 77 60 1.0 2.0 0.00 0.00 0.00 99 1009.6
20260508181320 77 108 1.0 2.0 0.00 0.00 0.00 99 1009.9
20260508180817 77 72 0.0 1.0 0.00 0.00 0.00 99 1010.0
20260508180314 77 70 1.0 1.0 0.00 0.00 0.00 99 1010.1
20260508175810 77 40 1.0 2.0 0.00 0.00 0.00 99 1010.1